Location: Carrières
(48.9495°N, 2.0407°E)
Time: 17:45:43
(UTC+00:00)

Cosmos 1553 Rocket - Pass Details

Date: 28 January 2023
Orbit: 942 x 1007 km, 82.9° (Epoch: 26 March)

Event Time Altitude Azimuth Distance (km) Brightness Sun altitude
Rises 18:53:31 0° 170° (S) 3,593 6.9 -21.5°
Reaches altitude 10° 18:56:02 10° 165° (SSE) 2,654 6.2 -21.9°
Maximum altitude 19:01:52 52° 91° (E) 1,173 4.0 -22.8°
Drops below altitude 10° 19:07:46 10° 18° (NNE) 2,694 6.1 -23.8°
Sets 19:10:21 0° 13° (NNE) 3,653 6.9 -24.2°
